Location: Dodge City Community College Clyde Tombaugh Astronomy Center
(37.7756°N, 100.0412°W)
Time: 13:30:11
(UTC+00:00)

NOAA 12 - Pass Details

Date: 08 December 2021
Orbit: 795 x 816 km, 98.5° (Epoch: 19 January)

Event Time Altitude Azimuth Distance (km) Brightness Sun altitude
Rises 12:27:13 0° 15° (NNE) 3,317 7.3 -14.6°
Reaches altitude 10° 12:29:35 10° 18° (NNE) 2,380 6.6 -14.2°
Maximum altitude 12:34:49 68° 102° (ESE) 856 4.5 -13.2°
Drops below altitude 10° 12:40:00 10° 185° (S) 2,356 6.7 -12.3°
Sets 12:42:19 0° 188° (S) 3,280 7.4 -11.8°
